date,time,SUV Intensity [MED/Hr],UV Index,Daily total [MED],Since Last [MED]
20/06/2022,00:09:32,-0.000,0.0,0.0,0.0
20/06/2022,00:17:32,0.000,0.0,0.0,0.0
20/06/2022,00:25:32,0.001,0.0,0.0,0.0
20/06/2022,00:34:41,0.001,0.0,0.0,0.0
20/06/2022,00:42:32,0.000,0.0,0.0,0.0
20/06/2022,00:50:32,0.000,0.0,0.0,0.0
20/06/2022,00:58:41,0.001,0.0,0.0,0.0
20/06/2022,01:07:32,0.000,0.0,0.0,0.0
20/06/2022,01:16:33,0.000,0.0,0.0,0.0
20/06/2022,01:26:33,0.000,0.0,0.0,0.0
20/06/2022,01:40:37,0.001,0.0,0.0,0.0
20/06/2022,01:55:38,0.002,0.0,0.0,0.0
20/06/2022,02:03:32,0.001,0.0,0.0,0.0
20/06/2022,02:17:36,0.001,0.0,0.0,0.0
20/06/2022,02:28:34,0.002,0.0,0.0,0.0
20/06/2022,02:41:36,0.002,0.0,0.0,0.0
20/06/2022,02:50:33,0.001,0.0,0.0,0.0
20/06/2022,02:59:33,0.001,0.0,0.0,0.0
20/06/2022,03:10:34,0.001,0.0,0.0,0.0
20/06/2022,03:20:42,0.002,0.0,0.0,0.0
20/06/2022,03:28:32,0.001,0.0,0.0,0.0
20/06/2022,03:36:32,0.002,0.0,0.0,0.0
20/06/2022,03:49:36,0.002,0.0,0.0,0.0
20/06/2022,03:56:31,0.004,0.0,0.0,0.0
20/06/2022,04:05:33,0.005,0.0,0.0,0.0
20/06/2022,04:18:36,0.009,0.0,0.001,0.001
20/06/2022,04:26:32,0.012,0.0,0.003,0.002
20/06/2022,04:35:33,0.015,0.0,0.005,0.002
20/06/2022,04:47:36,0.022,0.0,0.008,0.003
20/06/2022,04:53:31,0.027,0.0,0.011,0.003
20/06/2022,05:01:33,0.032,0.0,0.015,0.004
20/06/2022,05:09:33,0.040,0.0,0.019,0.004
20/06/2022,05:17:41,0.048,0.0,0.025,0.006
20/06/2022,05:26:33,0.059,0.0,0.033,0.008
20/06/2022,05:33:32,0.069,0.0,0.041,0.008
20/06/2022,05:40:32,0.080,0.0,0.049,0.008
20/06/2022,05:47:32,0.094,0.0,0.06,0.011
20/06/2022,05:54:32,0.107,0.0,0.071,0.011
20/06/2022,06:03:34,0.129,0.0,0.089,0.018
20/06/2022,06:11:33,0.148,0.0,0.107,0.018
20/06/2022,06:19:33,0.173,0.0,0.129,0.022
20/06/2022,06:28:00,0.202,0.0,0.155,0.026
20/06/2022,06:36:33,0.233,1.0,0.186,0.031
20/06/2022,06:44:41,0.267,1.0,0.22,0.034
20/06/2022,06:52:33,0.302,1.0,0.257,0.037
20/06/2022,07:00:32,0.341,1.0,0.3,0.043
20/06/2022,07:08:33,0.384,1.0,0.349,0.049
20/06/2022,07:16:41,0.431,1.0,0.403,0.054
20/06/2022,07:25:34,0.486,1.0,0.471,0.068
20/06/2022,07:32:32,0.494,1.0,0.531,0.06
20/06/2022,07:41:34,0.601,1.0,0.614,0.083
20/06/2022,07:52:35,0.683,2.0,0.732,0.118
20/06/2022,08:00:33,0.749,2.0,0.824,0.092
20/06/2022,08:25:26,0.951,2.0,1.176,0.352
20/06/2022,08:28:29,0.982,2.0,1.226,0.05
20/06/2022,08:29:36,0.993,2.0,1.244,0.018
20/06/2022,08:30:27,1.001,2.0,1.258,0.014
20/06/2022,08:31:28,1.009,2.0,1.275,0.017
20/06/2022,08:32:36,1.022,2.0,1.294,0.019
20/06/2022,08:33:27,1.028,2.0,1.309,0.015
20/06/2022,08:34:28,1.036,2.0,1.326,0.017
20/06/2022,08:35:35,1.043,2.0,1.345,0.019
20/06/2022,08:36:28,1.053,2.0,1.361,0.016
20/06/2022,08:37:28,1.063,2.0,1.378,0.017
20/06/2022,08:38:27,1.075,2.0,1.396,0.018
20/06/2022,08:39:27,1.090,3.0,1.414,0.018
20/06/2022,08:40:28,0.952,2.0,1.428,0.014
20/06/2022,08:41:28,1.099,3.0,1.446,0.018
20/06/2022,08:42:28,1.109,3.0,1.465,0.019
20/06/2022,08:43:28,1.113,3.0,1.483,0.018
20/06/2022,08:44:28,1.121,3.0,1.502,0.019
20/06/2022,08:45:36,0.772,2.0,1.522,0.02
20/06/2022,08:46:28,1.148,3.0,1.537,0.015
20/06/2022,08:47:28,1.155,3.0,1.556,0.019
20/06/2022,08:48:28,1.167,3.0,1.575,0.019
20/06/2022,08:49:28,1.177,3.0,1.594,0.019
20/06/2022,08:50:28,1.183,3.0,1.614,0.02
20/06/2022,08:51:28,1.198,3.0,1.634,0.02
20/06/2022,08:52:28,1.210,3.0,1.654,0.02
20/06/2022,08:53:27,1.241,3.0,1.674,0.02
20/06/2022,08:54:28,1.246,3.0,1.695,0.021
20/06/2022,08:55:27,1.267,3.0,1.716,0.021
20/06/2022,08:56:28,1.259,3.0,1.737,0.021
20/06/2022,08:57:28,1.235,3.0,1.758,0.021
20/06/2022,08:58:45,1.261,3.0,1.783,0.025
20/06/2022,09:00:29,1.282,3.0,1.819,0.036
20/06/2022,09:01:28,1.291,3.0,1.84,0.021
20/06/2022,09:02:28,1.283,3.0,1.862,0.022
20/06/2022,09:03:36,1.314,3.0,1.887,0.025
20/06/2022,09:04:27,0.878,2.0,1.904,0.017
20/06/2022,09:05:27,0.852,2.0,1.922,0.018
20/06/2022,09:06:36,0.990,2.0,1.94,0.018
20/06/2022,09:07:28,1.334,3.0,1.959,0.019
20/06/2022,09:08:28,1.350,3.0,1.981,0.022
20/06/2022,09:09:27,1.376,3.0,2.004,0.023
20/06/2022,09:10:28,1.411,3.0,2.027,0.023
20/06/2022,09:11:27,0.971,2.0,2.042,0.015
20/06/2022,09:12:27,1.416,3.0,2.063,0.021
20/06/2022,09:13:27,1.410,3.0,2.086,0.023
20/06/2022,09:14:28,1.421,3.0,2.11,0.024
20/06/2022,09:15:28,1.443,3.0,2.134,0.024
20/06/2022,09:16:27,1.457,3.0,2.158,0.024
20/06/2022,09:17:27,1.460,3.0,2.182,0.024
20/06/2022,09:18:36,1.456,3.0,2.21,0.028
20/06/2022,09:19:28,1.460,3.0,2.231,0.021
20/06/2022,09:20:28,1.469,3.0,2.255,0.024
20/06/2022,09:21:28,1.485,3.0,2.28,0.025
20/06/2022,09:22:27,1.516,3.0,2.305,0.025
20/06/2022,09:23:27,1.535,4.0,2.33,0.025
20/06/2022,09:24:28,1.530,4.0,2.356,0.026
20/06/2022,09:25:36,1.535,4.0,2.385,0.029
20/06/2022,09:26:27,1.548,4.0,2.407,0.022
20/06/2022,09:27:27,1.574,4.0,2.433,0.026
20/06/2022,09:28:36,0.997,2.0,2.456,0.023
20/06/2022,09:30:28,1.657,4.0,2.503,0.047
20/06/2022,09:31:27,1.703,4.0,2.531,0.028
20/06/2022,09:32:27,1.682,4.0,2.56,0.029
20/06/2022,09:33:28,1.729,4.0,2.588,0.028
20/06/2022,09:34:28,1.716,4.0,2.617,0.029
20/06/2022,09:35:27,1.717,4.0,2.646,0.029
20/06/2022,09:36:28,1.728,4.0,2.674,0.028
20/06/2022,09:37:36,1.739,4.0,2.707,0.033
20/06/2022,09:38:29,1.741,4.0,2.732,0.025
20/06/2022,09:39:27,1.735,4.0,2.761,0.029
20/06/2022,09:40:36,1.739,4.0,2.794,0.033
20/06/2022,09:41:28,1.746,4.0,2.819,0.025
20/06/2022,09:42:30,1.759,4.0,2.849,0.03
20/06/2022,09:43:36,1.582,4.0,2.879,0.03
20/06/2022,09:44:27,1.677,4.0,2.903,0.024
20/06/2022,09:45:27,1.178,3.0,2.932,0.029
20/06/2022,09:46:28,1.078,2.0,2.951,0.019
20/06/2022,09:47:28,1.051,2.0,2.97,0.019
20/06/2022,09:48:45,1.762,4.0,3.002,0.032
20/06/2022,09:50:37,1.133,3.0,3.044,0.042
20/06/2022,09:51:28,1.460,3.0,3.064,0.02
20/06/2022,09:52:28,1.711,4.0,3.086,0.022
20/06/2022,09:53:27,1.772,4.0,3.116,0.03
20/06/2022,09:54:28,1.790,4.0,3.145,0.029
20/06/2022,09:55:27,1.792,4.0,3.174,0.029
20/06/2022,09:56:36,1.795,4.0,3.208,0.034
20/06/2022,09:57:28,1.805,4.0,3.234,0.026
20/06/2022,09:58:27,1.788,4.0,3.264,0.03
20/06/2022,09:59:27,1.805,4.0,3.294,0.03
20/06/2022,10:00:28,1.812,4.0,3.324,0.03
20/06/2022,10:01:28,1.822,4.0,3.354,0.03
20/06/2022,10:02:28,1.838,4.0,3.385,0.031
20/06/2022,10:03:28,1.844,4.0,3.415,0.03
20/06/2022,10:04:28,1.859,4.0,3.446,0.031
20/06/2022,10:05:28,1.863,4.0,3.477,0.031
20/06/2022,10:06:28,1.870,4.0,3.508,0.031
20/06/2022,10:07:28,1.897,4.0,3.54,0.032
20/06/2022,10:08:28,1.905,4.0,3.572,0.032
20/06/2022,10:09:28,1.915,4.0,3.603,0.031
20/06/2022,10:10:28,1.914,4.0,3.635,0.032
20/06/2022,10:11:37,1.919,4.0,3.672,0.037
20/06/2022,10:12:28,1.927,4.0,3.699,0.027
20/06/2022,10:13:28,1.687,4.0,3.731,0.032
20/06/2022,10:14:36,1.941,4.0,3.765,0.034
20/06/2022,10:15:28,1.708,4.0,3.793,0.028
20/06/2022,10:16:28,1.979,5.0,3.821,0.028
20/06/2022,10:17:28,1.985,5.0,3.852,0.031
20/06/2022,10:18:28,1.995,5.0,3.885,0.033
20/06/2022,10:19:28,2.012,5.0,3.918,0.033
20/06/2022,10:20:36,2.003,5.0,3.956,0.038
20/06/2022,10:21:28,1.991,5.0,3.984,0.028
20/06/2022,10:22:28,2.028,5.0,4.017,0.033
20/06/2022,10:23:28,2.041,5.0,4.051,0.034
20/06/2022,10:24:27,2.063,5.0,4.085,0.034
20/06/2022,10:25:27,2.037,5.0,4.12,0.035
20/06/2022,10:26:28,2.032,5.0,4.154,0.034
20/06/2022,10:27:28,2.041,5.0,4.187,0.033
20/06/2022,10:28:27,2.052,5.0,4.222,0.035
20/06/2022,10:29:28,2.055,5.0,4.256,0.034
20/06/2022,10:30:28,2.050,5.0,4.29,0.034
20/06/2022,10:31:28,2.065,5.0,4.324,0.034
20/06/2022,10:32:28,2.085,5.0,4.359,0.035
20/06/2022,10:33:28,2.081,5.0,4.394,0.035
20/06/2022,10:34:28,2.087,5.0,4.428,0.034
20/06/2022,10:35:36,2.091,5.0,4.468,0.04
20/06/2022,10:36:28,2.100,5.0,4.498,0.03
20/06/2022,10:37:28,2.107,5.0,4.533,0.035
20/06/2022,10:38:28,2.086,5.0,4.568,0.035
20/06/2022,10:39:28,2.105,5.0,4.603,0.035
20/06/2022,10:40:28,2.120,5.0,4.638,0.035
20/06/2022,10:41:28,2.118,5.0,4.674,0.036
20/06/2022,10:42:28,2.169,5.0,4.708,0.034
20/06/2022,10:43:28,2.152,5.0,4.744,0.036
20/06/2022,10:44:28,2.152,5.0,4.78,0.036
20/06/2022,10:45:27,2.169,5.0,4.816,0.036
20/06/2022,10:46:28,2.170,5.0,4.852,0.036
20/06/2022,10:47:28,2.170,5.0,4.888,0.036
20/06/2022,10:48:36,2.157,5.0,4.93,0.042
20/06/2022,10:49:28,2.191,5.0,4.961,0.031
20/06/2022,10:50:28,2.200,5.0,4.998,0.037
20/06/2022,10:51:27,2.193,5.0,5.034,0.036
20/06/2022,10:52:28,2.222,5.0,5.071,0.037
20/06/2022,10:53:27,2.230,5.0,5.108,0.037
20/06/2022,10:54:39,1.979,5.0,5.145,0.037
20/06/2022,10:56:28,2.245,5.0,5.212,0.067
20/06/2022,10:57:28,2.269,5.0,5.249,0.037
20/06/2022,10:58:28,2.262,5.0,5.287,0.038
20/06/2022,10:59:28,1.442,3.0,5.318,0.031
20/06/2022,11:00:28,2.250,5.0,5.346,0.028
20/06/2022,11:01:28,2.272,5.0,5.383,0.037
20/06/2022,11:02:28,2.248,5.0,5.419,0.036
20/06/2022,11:03:36,2.234,5.0,5.461,0.042
20/06/2022,11:04:28,2.278,5.0,5.494,0.033
20/06/2022,11:05:28,2.277,5.0,5.532,0.038
20/06/2022,11:06:36,2.294,5.0,5.575,0.043
20/06/2022,11:07:28,2.288,5.0,5.608,0.033
20/06/2022,11:08:28,2.305,5.0,5.646,0.038
20/06/2022,11:09:28,2.317,5.0,5.685,0.039
20/06/2022,11:10:28,2.323,5.0,5.723,0.038
20/06/2022,11:11:28,2.319,5.0,5.762,0.039
20/06/2022,11:12:28,2.322,5.0,5.801,0.039
20/06/2022,11:13:28,2.325,5.0,5.839,0.038
20/06/2022,11:14:28,2.318,5.0,5.878,0.039
20/06/2022,11:15:28,2.316,5.0,5.916,0.038
20/06/2022,11:16:28,2.318,5.0,5.955,0.039
20/06/2022,11:17:29,2.320,5.0,5.994,0.039
20/06/2022,11:18:28,2.346,5.0,6.033,0.039
20/06/2022,11:19:28,2.343,5.0,6.072,0.039
20/06/2022,11:20:28,2.344,5.0,6.111,0.039
20/06/2022,11:21:28,2.355,5.0,6.15,0.039
20/06/2022,11:22:28,2.360,5.0,6.189,0.039
20/06/2022,11:23:28,2.365,5.0,6.229,0.04
20/06/2022,11:24:28,2.366,5.0,6.268,0.039
20/06/2022,11:25:28,2.371,5.0,6.307,0.039
20/06/2022,11:26:28,2.370,5.0,6.347,0.04
20/06/2022,11:27:28,2.375,5.0,6.386,0.039
20/06/2022,11:28:28,2.386,5.0,6.426,0.04
20/06/2022,11:29:28,2.402,6.0,6.466,0.04
20/06/2022,11:30:36,2.396,6.0,6.511,0.045
20/06/2022,11:31:28,2.389,5.0,6.546,0.035
20/06/2022,11:32:28,2.382,5.0,6.586,0.04
20/06/2022,11:33:37,2.389,5.0,6.631,0.045
20/06/2022,11:35:28,2.412,6.0,6.706,0.075
20/06/2022,11:36:28,2.422,6.0,6.746,0.04
20/06/2022,11:37:28,2.410,6.0,6.786,0.04
20/06/2022,11:38:28,2.409,6.0,6.826,0.04
20/06/2022,11:39:29,2.421,6.0,6.868,0.042
20/06/2022,11:40:28,2.402,6.0,6.907,0.039
20/06/2022,11:41:29,2.374,5.0,6.946,0.039
20/06/2022,11:42:28,2.396,6.0,6.982,0.036
20/06/2022,11:43:28,2.433,6.0,7.022,0.04
20/06/2022,11:44:28,2.415,6.0,7.063,0.041
20/06/2022,11:45:28,2.442,6.0,7.103,0.04
20/06/2022,11:46:28,2.437,6.0,7.144,0.041
20/06/2022,11:47:29,2.439,6.0,7.185,0.041
20/06/2022,11:48:28,2.414,6.0,7.225,0.04
20/06/2022,11:49:28,2.463,6.0,7.266,0.041
20/06/2022,11:50:28,2.447,6.0,7.307,0.041
20/06/2022,11:51:28,2.480,6.0,7.348,0.041
20/06/2022,11:52:28,2.514,6.0,7.389,0.041
20/06/2022,11:53:28,1.968,5.0,7.428,0.039
20/06/2022,11:54:37,2.465,6.0,7.473,0.045
20/06/2022,11:55:28,2.437,6.0,7.508,0.035
20/06/2022,11:56:28,2.473,6.0,7.549,0.041
20/06/2022,11:57:28,2.462,6.0,7.59,0.041
20/06/2022,11:58:28,2.481,6.0,7.631,0.041
20/06/2022,11:59:28,2.474,6.0,7.672,0.041
20/06/2022,12:00:28,2.462,6.0,7.713,0.041
20/06/2022,12:01:28,2.473,6.0,7.755,0.042
20/06/2022,12:02:28,2.482,6.0,7.796,0.041
20/06/2022,12:03:28,2.478,6.0,7.837,0.041
20/06/2022,12:04:28,2.490,6.0,7.879,0.042
20/06/2022,12:05:28,2.494,6.0,7.92,0.041
20/06/2022,12:06:28,2.512,6.0,7.962,0.042
20/06/2022,12:07:28,2.525,6.0,8.004,0.042
20/06/2022,12:08:28,2.538,6.0,8.046,0.042
20/06/2022,12:09:28,2.530,6.0,8.088,0.042
20/06/2022,12:10:29,2.517,6.0,8.13,0.042
20/06/2022,12:11:28,2.499,6.0,8.172,0.042
20/06/2022,12:12:28,2.495,6.0,8.214,0.042
20/06/2022,12:13:28,2.518,6.0,8.255,0.041
20/06/2022,12:14:28,2.513,6.0,8.297,0.042
20/06/2022,12:15:28,2.477,6.0,8.339,0.042
20/06/2022,12:16:28,2.505,6.0,8.38,0.041
20/06/2022,12:17:36,2.473,6.0,8.427,0.047
20/06/2022,12:18:27,2.509,6.0,8.463,0.036
20/06/2022,12:19:28,1.647,4.0,8.502,0.039
20/06/2022,12:20:28,1.614,4.0,8.528,0.026
20/06/2022,12:21:28,2.195,5.0,8.563,0.035
20/06/2022,12:22:28,2.427,6.0,8.6,0.037
20/06/2022,12:23:37,2.464,6.0,8.647,0.047
20/06/2022,12:24:28,2.445,6.0,8.682,0.035
20/06/2022,12:25:28,2.470,6.0,8.723,0.041
20/06/2022,12:26:28,2.462,6.0,8.764,0.041
20/06/2022,12:27:28,2.481,6.0,8.806,0.042
20/06/2022,12:28:28,2.490,6.0,8.847,0.041
20/06/2022,12:29:29,2.497,6.0,8.889,0.042
20/06/2022,12:30:28,2.488,6.0,8.93,0.041
20/06/2022,12:31:28,2.486,6.0,8.972,0.042
20/06/2022,12:32:28,2.475,6.0,9.013,0.041
20/06/2022,12:33:29,2.463,6.0,9.054,0.041
20/06/2022,12:34:28,2.467,6.0,9.095,0.041
20/06/2022,12:35:28,2.480,6.0,9.136,0.041
20/06/2022,12:36:28,2.482,6.0,9.177,0.041
20/06/2022,12:37:28,2.486,6.0,9.219,0.042
20/06/2022,12:38:36,2.487,6.0,9.266,0.047
20/06/2022,12:39:28,2.477,6.0,9.301,0.035
20/06/2022,12:40:28,2.473,6.0,9.343,0.042
20/06/2022,12:41:36,2.464,6.0,9.389,0.046
20/06/2022,12:42:28,2.466,6.0,9.425,0.036
20/06/2022,12:43:28,2.460,6.0,9.466,0.041
20/06/2022,12:44:29,2.460,6.0,9.507,0.041
20/06/2022,12:45:28,2.462,6.0,9.548,0.041
20/06/2022,12:46:28,2.462,6.0,9.589,0.041
20/06/2022,12:47:28,2.457,6.0,9.63,0.041
20/06/2022,12:48:28,2.429,6.0,9.671,0.041
20/06/2022,12:49:37,2.423,6.0,9.717,0.046
20/06/2022,12:50:29,2.431,6.0,9.752,0.035
20/06/2022,12:51:28,2.436,6.0,9.792,0.04
20/06/2022,12:52:28,2.423,6.0,9.832,0.04
20/06/2022,12:53:29,2.414,6.0,9.874,0.042
20/06/2022,12:54:28,2.419,6.0,9.913,0.039
20/06/2022,12:55:28,2.428,6.0,9.953,0.04
20/06/2022,12:56:28,2.415,6.0,9.993,0.04
20/06/2022,12:57:28,2.413,6.0,10.034,0.041
20/06/2022,12:58:29,2.420,6.0,10.074,0.04
20/06/2022,12:59:28,2.415,6.0,10.114,0.04
20/06/2022,13:00:29,2.403,6.0,10.154,0.04
20/06/2022,13:01:28,2.401,6.0,10.194,0.04
20/06/2022,13:02:28,2.402,6.0,10.234,0.04
20/06/2022,13:03:28,2.397,6.0,10.274,0.04
20/06/2022,13:04:28,2.382,5.0,10.314,0.04
20/06/2022,13:05:28,2.370,5.0,10.354,0.04
20/06/2022,13:06:28,2.382,5.0,10.394,0.04
20/06/2022,13:07:36,2.366,5.0,10.438,0.044
20/06/2022,13:09:29,2.368,5.0,10.512,0.074
20/06/2022,13:10:28,2.351,5.0,10.551,0.039
20/06/2022,13:11:28,2.352,5.0,10.591,0.04
20/06/2022,13:12:28,2.357,5.0,10.63,0.039
20/06/2022,13:13:28,2.321,5.0,10.669,0.039
20/06/2022,13:14:28,2.321,5.0,10.708,0.039
20/06/2022,13:15:29,2.335,5.0,10.746,0.038
20/06/2022,13:16:28,2.337,5.0,10.785,0.039
20/06/2022,13:17:29,2.314,5.0,10.824,0.039
20/06/2022,13:18:28,2.320,5.0,10.863,0.039
20/06/2022,13:19:28,2.310,5.0,10.901,0.038
20/06/2022,13:20:28,2.261,5.0,10.94,0.039
20/06/2022,13:21:28,2.305,5.0,10.978,0.038
20/06/2022,13:22:28,2.292,5.0,11.016,0.038
20/06/2022,13:23:28,2.286,5.0,11.055,0.039
20/06/2022,13:24:28,2.297,5.0,11.093,0.038
20/06/2022,13:25:29,2.292,5.0,11.131,0.038
20/06/2022,13:26:28,2.283,5.0,11.169,0.038
20/06/2022,13:27:28,2.238,5.0,11.207,0.038
20/06/2022,13:28:28,2.277,5.0,11.245,0.038
20/06/2022,13:29:28,2.265,5.0,11.283,0.038
20/06/2022,13:30:28,2.255,5.0,11.321,0.038
20/06/2022,13:31:28,2.260,5.0,11.358,0.037
20/06/2022,13:32:28,2.242,5.0,11.396,0.038
20/06/2022,13:33:36,2.226,5.0,11.438,0.042
20/06/2022,13:34:28,2.228,5.0,11.47,0.032
20/06/2022,13:35:28,2.218,5.0,11.507,0.037
20/06/2022,13:36:36,2.219,5.0,11.549,0.042
20/06/2022,13:37:28,2.210,5.0,11.581,0.032
20/06/2022,13:38:29,2.197,5.0,11.618,0.037
20/06/2022,13:39:29,2.206,5.0,11.655,0.037
20/06/2022,13:40:29,2.211,5.0,11.691,0.036
20/06/2022,13:41:28,2.206,5.0,11.728,0.037
20/06/2022,13:42:28,2.189,5.0,11.765,0.037
20/06/2022,13:43:28,2.192,5.0,11.801,0.036
20/06/2022,13:44:28,2.177,5.0,11.837,0.036
20/06/2022,13:45:28,2.160,5.0,11.874,0.037
20/06/2022,13:46:28,2.157,5.0,11.91,0.036
20/06/2022,13:47:28,2.136,5.0,11.946,0.036
20/06/2022,13:48:28,2.169,5.0,11.981,0.035
20/06/2022,13:49:28,2.148,5.0,12.017,0.036
20/06/2022,13:50:28,2.138,5.0,12.053,0.036
20/06/2022,13:51:28,2.126,5.0,12.089,0.036
20/06/2022,13:52:28,2.133,5.0,12.124,0.035
20/06/2022,13:53:28,2.116,5.0,12.159,0.035
20/06/2022,13:54:28,2.125,5.0,12.195,0.036
20/06/2022,13:55:28,2.117,5.0,12.23,0.035
20/06/2022,13:56:28,2.103,5.0,12.265,0.035
20/06/2022,13:57:28,2.082,5.0,12.3,0.035
20/06/2022,13:58:28,2.063,5.0,12.334,0.034
20/06/2022,13:59:28,2.031,5.0,12.368,0.034
20/06/2022,14:00:28,2.036,5.0,12.403,0.035
20/06/2022,14:01:28,2.049,5.0,12.437,0.034
20/06/2022,14:02:36,2.042,5.0,12.475,0.038
20/06/2022,14:03:29,2.041,5.0,12.505,0.03
20/06/2022,14:04:28,2.033,5.0,12.539,0.034
20/06/2022,14:05:37,2.024,5.0,12.577,0.038
20/06/2022,14:06:28,2.024,5.0,12.606,0.029
20/06/2022,14:07:28,2.019,5.0,12.64,0.034
20/06/2022,14:08:28,2.009,5.0,12.674,0.034
20/06/2022,14:09:28,1.997,5.0,12.707,0.033
20/06/2022,14:10:28,1.988,5.0,12.74,0.033
20/06/2022,14:11:28,1.981,5.0,12.773,0.033
20/06/2022,14:12:28,1.985,5.0,12.806,0.033
20/06/2022,14:13:29,1.983,5.0,12.839,0.033
20/06/2022,14:14:28,1.964,5.0,12.872,0.033
20/06/2022,14:15:28,1.956,4.0,12.905,0.033
20/06/2022,14:16:36,1.966,5.0,12.942,0.037
20/06/2022,14:17:28,1.946,4.0,12.97,0.028
20/06/2022,14:18:28,1.909,4.0,13.002,0.032
20/06/2022,14:19:28,1.915,4.0,13.034,0.032
20/06/2022,14:20:29,1.924,4.0,13.066,0.032
20/06/2022,14:21:30,1.915,4.0,13.099,0.033
20/06/2022,14:22:29,1.922,4.0,13.13,0.031
20/06/2022,14:23:28,1.908,4.0,13.162,0.032
20/06/2022,14:24:29,1.879,4.0,13.193,0.031
20/06/2022,14:25:28,1.879,4.0,13.225,0.032
20/06/2022,14:26:29,1.874,4.0,13.256,0.031
20/06/2022,14:27:28,1.864,4.0,13.287,0.031
20/06/2022,14:28:29,1.827,4.0,13.317,0.03
20/06/2022,14:29:28,1.834,4.0,13.348,0.031
20/06/2022,14:30:28,1.832,4.0,13.379,0.031
20/06/2022,14:31:29,1.826,4.0,13.409,0.03
20/06/2022,14:32:28,1.795,4.0,13.439,0.03
20/06/2022,14:33:28,1.805,4.0,13.469,0.03
20/06/2022,14:34:28,1.815,4.0,13.5,0.031
20/06/2022,14:35:29,1.807,4.0,13.53,0.03
20/06/2022,14:36:28,1.815,4.0,13.56,0.03
20/06/2022,14:37:29,1.815,4.0,13.59,0.03
20/06/2022,14:38:28,1.791,4.0,13.62,0.03
20/06/2022,14:39:36,1.677,4.0,13.654,0.034
20/06/2022,14:40:29,1.437,3.0,13.674,0.02
20/06/2022,14:41:28,1.718,4.0,13.702,0.028
20/06/2022,14:42:29,1.381,3.0,13.728,0.026
20/06/2022,14:43:28,1.560,4.0,13.753,0.025
20/06/2022,14:44:28,1.668,4.0,13.781,0.028
20/06/2022,14:45:37,1.650,4.0,13.812,0.031
20/06/2022,14:46:26,1.632,4.0,13.835,0.023
20/06/2022,14:47:28,1.610,4.0,13.863,0.028
20/06/2022,14:48:28,1.647,4.0,13.89,0.027
20/06/2022,14:49:29,1.645,4.0,13.917,0.027
20/06/2022,14:50:37,1.630,4.0,13.948,0.031
20/06/2022,14:51:28,1.573,4.0,13.972,0.024
20/06/2022,14:52:29,1.591,4.0,13.998,0.026
20/06/2022,14:53:36,1.606,4.0,14.028,0.03
20/06/2022,14:54:29,1.597,4.0,14.052,0.024
20/06/2022,14:55:28,1.581,4.0,14.078,0.026
20/06/2022,14:56:29,1.582,4.0,14.104,0.026
20/06/2022,14:57:28,1.566,4.0,14.131,0.027
20/06/2022,14:58:28,1.546,4.0,14.156,0.025
20/06/2022,14:59:28,1.546,4.0,14.182,0.026
20/06/2022,15:00:28,1.537,4.0,14.208,0.026
20/06/2022,15:01:28,1.516,3.0,14.233,0.025
20/06/2022,15:02:28,1.497,3.0,14.259,0.026
20/06/2022,15:03:29,1.483,3.0,14.283,0.024
20/06/2022,15:04:28,1.500,3.0,14.308,0.025
20/06/2022,15:05:28,1.442,3.0,14.333,0.025
20/06/2022,15:06:28,1.435,3.0,14.357,0.024
20/06/2022,15:07:28,1.411,3.0,14.381,0.024
20/06/2022,15:08:29,1.468,3.0,14.406,0.025
20/06/2022,15:09:28,1.457,3.0,14.429,0.023
20/06/2022,15:10:28,1.452,3.0,14.454,0.025
20/06/2022,15:11:28,1.408,3.0,14.477,0.023
20/06/2022,15:12:29,1.399,3.0,14.501,0.024
20/06/2022,15:13:28,1.427,3.0,14.524,0.023
20/06/2022,15:14:26,1.414,3.0,14.547,0.023
20/06/2022,15:15:29,1.405,3.0,14.572,0.025
20/06/2022,15:16:28,1.387,3.0,14.595,0.023
20/06/2022,15:17:28,1.377,3.0,14.618,0.023
20/06/2022,15:18:28,1.369,3.0,14.641,0.023
20/06/2022,15:19:28,1.366,3.0,14.664,0.023
20/06/2022,15:20:28,1.358,3.0,14.686,0.022
20/06/2022,15:21:37,1.362,3.0,14.713,0.027
20/06/2022,15:22:28,1.351,3.0,14.732,0.019
20/06/2022,15:23:29,1.327,3.0,14.754,0.022
20/06/2022,15:24:28,1.304,3.0,14.776,0.022
20/06/2022,15:25:28,1.316,3.0,14.797,0.021
20/06/2022,15:26:28,1.310,3.0,14.819,0.022
20/06/2022,15:27:29,1.289,3.0,14.841,0.022
20/06/2022,15:28:30,1.270,3.0,14.863,0.022
20/06/2022,15:29:28,1.266,3.0,14.883,0.02
20/06/2022,15:30:29,1.242,3.0,14.904,0.021
20/06/2022,15:31:28,1.238,3.0,14.925,0.021
20/06/2022,15:32:29,1.213,3.0,14.945,0.02
20/06/2022,15:33:28,1.214,3.0,14.966,0.021
20/06/2022,15:34:28,1.187,3.0,14.986,0.02
20/06/2022,15:35:30,1.143,3.0,15.006,0.02
20/06/2022,15:36:28,1.164,3.0,15.025,0.019
20/06/2022,15:37:28,1.156,3.0,15.044,0.019
20/06/2022,15:38:29,1.139,3.0,15.063,0.019
20/06/2022,15:39:28,1.135,3.0,15.082,0.019
20/06/2022,15:40:28,1.132,3.0,15.101,0.019
20/06/2022,15:41:29,1.118,3.0,15.12,0.019
20/06/2022,15:42:28,1.099,3.0,15.138,0.018
20/06/2022,15:43:29,1.088,3.0,15.156,0.018
20/06/2022,15:44:29,1.081,2.0,15.175,0.019
20/06/2022,15:45:28,1.100,3.0,15.193,0.018
20/06/2022,15:46:29,1.081,2.0,15.211,0.018
20/06/2022,15:47:37,1.093,3.0,15.231,0.02
20/06/2022,15:48:28,1.081,2.0,15.247,0.016
20/06/2022,15:49:29,1.072,2.0,15.265,0.018
20/06/2022,15:50:28,1.060,2.0,15.283,0.018
20/06/2022,15:51:29,1.047,2.0,15.3,0.017
20/06/2022,15:52:36,1.037,2.0,15.32,0.02
20/06/2022,15:53:28,1.033,2.0,15.335,0.015
20/06/2022,15:54:28,1.018,2.0,15.352,0.017
20/06/2022,15:55:37,0.993,2.0,15.371,0.019
20/06/2022,15:56:28,0.982,2.0,15.385,0.014
20/06/2022,15:57:28,0.998,2.0,15.402,0.017
20/06/2022,15:58:29,0.981,2.0,15.418,0.016
20/06/2022,15:59:28,0.974,2.0,15.435,0.017
20/06/2022,16:00:28,0.961,2.0,15.451,0.016
20/06/2022,16:01:28,0.831,2.0,15.466,0.015
20/06/2022,16:02:28,0.892,2.0,15.481,0.015
20/06/2022,16:03:28,0.936,2.0,15.496,0.015
20/06/2022,16:04:28,0.938,2.0,15.512,0.016
20/06/2022,16:05:28,0.932,2.0,15.527,0.015
20/06/2022,16:06:28,0.924,2.0,15.543,0.016
20/06/2022,16:07:28,0.923,2.0,15.558,0.015
20/06/2022,16:08:28,0.907,2.0,15.573,0.015
20/06/2022,16:09:31,0.899,2.0,15.589,0.016
20/06/2022,16:10:29,0.895,2.0,15.603,0.014
20/06/2022,16:11:29,0.879,2.0,15.618,0.015
20/06/2022,16:12:28,0.873,2.0,15.633,0.015
20/06/2022,16:13:28,0.852,2.0,15.647,0.014
20/06/2022,16:14:29,0.845,2.0,15.661,0.014
20/06/2022,16:15:29,0.830,2.0,15.675,0.014
20/06/2022,16:16:28,0.743,2.0,15.688,0.013
20/06/2022,16:17:29,0.822,2.0,15.702,0.014
20/06/2022,16:18:28,0.811,2.0,15.715,0.013
20/06/2022,16:19:28,0.811,2.0,15.729,0.014
20/06/2022,16:20:29,0.800,2.0,15.742,0.013
20/06/2022,16:21:28,0.787,2.0,15.755,0.013
20/06/2022,16:22:28,0.793,2.0,15.768,0.013
20/06/2022,16:23:29,0.783,2.0,15.782,0.014
20/06/2022,16:24:29,0.769,2.0,15.795,0.013
20/06/2022,16:25:28,0.751,2.0,15.807,0.012
20/06/2022,16:26:37,0.739,2.0,15.822,0.015
20/06/2022,16:27:29,0.738,2.0,15.832,0.01
20/06/2022,16:28:29,0.738,2.0,15.844,0.012
20/06/2022,16:29:37,0.729,2.0,15.858,0.014
20/06/2022,16:30:38,0.702,2.0,15.87,0.012
20/06/2022,16:31:29,0.687,2.0,15.88,0.01
20/06/2022,16:32:28,0.639,1.0,15.891,0.011
20/06/2022,16:33:28,0.672,2.0,15.902,0.011
20/06/2022,16:34:28,0.677,2.0,15.913,0.011
20/06/2022,16:35:29,0.682,2.0,15.925,0.012
20/06/2022,16:36:28,0.682,2.0,15.936,0.011
20/06/2022,16:37:28,0.678,2.0,15.947,0.011
20/06/2022,16:38:37,0.667,2.0,15.96,0.013
20/06/2022,16:39:37,0.663,2.0,15.971,0.011
20/06/2022,16:40:31,0.659,2.0,15.981,0.01
20/06/2022,16:41:28,0.650,1.0,15.992,0.011
20/06/2022,16:42:28,0.646,1.0,16.002,0.01
20/06/2022,16:43:29,0.642,1.0,16.013,0.011
20/06/2022,16:44:28,0.630,1.0,16.024,0.011
20/06/2022,16:45:28,0.617,1.0,16.034,0.01
20/06/2022,16:46:29,0.604,1.0,16.044,0.01
20/06/2022,16:47:28,0.601,1.0,16.054,0.01
20/06/2022,16:48:29,0.588,1.0,16.064,0.01
20/06/2022,16:49:29,0.578,1.0,16.074,0.01
20/06/2022,16:50:28,0.568,1.0,16.083,0.009
20/06/2022,16:51:53,0.564,1.0,16.097,0.014
20/06/2022,16:53:29,0.553,1.0,16.112,0.015
20/06/2022,16:54:29,0.546,1.0,16.121,0.009
20/06/2022,16:55:28,0.538,1.0,16.13,0.009
20/06/2022,16:56:28,0.532,1.0,16.139,0.009
20/06/2022,16:57:28,0.526,1.0,16.147,0.008
20/06/2022,16:58:28,0.517,1.0,16.156,0.009
20/06/2022,16:59:38,0.509,1.0,16.166,0.01
20/06/2022,17:00:29,0.504,1.0,16.173,0.007
20/06/2022,17:01:28,0.496,1.0,16.182,0.009
20/06/2022,17:02:37,0.488,1.0,16.191,0.009
20/06/2022,17:04:29,0.480,1.0,16.206,0.015
20/06/2022,17:05:37,0.480,1.0,16.215,0.009
20/06/2022,17:06:28,0.477,1.0,16.222,0.007
20/06/2022,17:07:28,0.473,1.0,16.23,0.008
20/06/2022,17:08:28,0.465,1.0,16.238,0.008
20/06/2022,17:09:28,0.461,1.0,16.245,0.007